Вернуться в каталог

STARLINK-1549

АктивенСвязьVLEO
NORAD 46074·PAYLOAD·🇺🇸 United States

Запущен Aug 7, 2020 с Cape Canaveral Space Force Station

Loading…

Ближайшие Пролёты (ближайшие 24 часа)

TLE

СвежийSource: CelesTrak SupGP

Эпоха: Sep 15, 2026, 02:17 UTC

1 46074C 20055AZ  26258.09562500  .00039620  00000+0  99731-3 0  2582
2 46074  53.0460 296.8002 0003612  10.9718  50.4447 15.39320562    17

Отслеживайте STARLINK-1549 в реальном времени с AllMySat

Download on the App Store